• In Uzbekistan
  • List of Countries
  • For 7 days
  • Water Temperature
  • Satellite Maps
  • Weather Map
  • Weather Widgets
  • user-avatar
    Login

    Hourly Weather Encamp

    Today, 3 December, Saturday

    Time Temperature Precipitation Wind Pressure Humidity
    00:00 -6°C° 0 mm 0 mps 618 mmHg 64%
    01:00 -6°C° 0 mm 0 mps 617 mmHg 63%
    02:00 -6°C° 0 mm 0 mps 617 mmHg 62%
    03:00 -6°C° 0 mm 0 mps 617 mmHg 61%
    04:00 -6°C° 0 mm 1 mps 617 mmHg 58%
    05:00 -6°C° 0 mm 1 mps 617 mmHg 55%
    06:00 -6°C° 0 mm 1 mps 617 mmHg 53%
    07:00 -3°C° 0 mm 1 mps 618 mmHg 47%
    08:00 -1°C° 0 mm 1 mps 620 mmHg 42%
    09:00 +2°C° 0 mm 1 mps 621 mmHg 37%
    10:00 +3°C° 0 mm 1 mps 621 mmHg 36%
    11:00 +4°C° 0 mm 2 mps 622 mmHg 35%
    12:00 +5°C° 0 mm 2 mps 622 mmHg 34%
    13:00 +4°C° 0 mm 2 mps 622 mmHg 41%
    14:00 +3°C° 0 mm 2 mps 621 mmHg 47%
    15:00 +2°C° 0 mm 2 mps 621 mmHg 53%
    16:00 +1°C° 0 mm 2 mps 620 mmHg 57%
    17:00 -2°C° 0 mm 2 mps 620 mmHg 61%
    18:00 -4°C° 0 mm 2 mps 619 mmHg 65%
    19:00 -4°C° 0 mm 2 mps 619 mmHg 67%
    20:00 -4°C° 0 mm 2 mps 620 mmHg 69%
    21:00 -4°C° 0 mm 2 mps 620 mmHg 72%
    22:00 -3°C° 0 mm 2 mps 620 mmHg 75%
    23:00 -3°C° 0 mm 2 mps 620 mmHg 79%

    Tomorrow, 4 December, Sunday

    Time Temperature Precipitation Wind Pressure Humidity
    00:00 -3°C° 0 mm 2 mps 620 mmHg 83%
    01:00 -3°C° 0 mm 2 mps 620 mmHg 84%
    02:00 -2°C° 0 mm 2 mps 620 mmHg 86%
    03:00 -2°C° 0 mm 2 mps 620 mmHg 88%
    04:00 -2°C° 0 mm 2 mps 620 mmHg 89%
    05:00 -2°C° 0 mm 2 mps 620 mmHg 89%
    06:00 -2°C° 0 mm 2 mps 620 mmHg 90%
    07:00 -1°C° 0 mm 2 mps 621 mmHg 85%
    08:00 +1°C° 0 mm 2 mps 622 mmHg 81%
    09:00 +1°C° 0 mm 3 mps 622 mmHg 76%
    10:00 +3°C° 0 mm 3 mps 623 mmHg 73%
    11:00 +4°C° 0 mm 3 mps 623 mmHg 69%
    12:00 +5°C° 0 mm 3 mps 623 mmHg 65%
    13:00 +5°C° 0 mm 3 mps 623 mmHg 69%
    14:00 +4°C° 0 mm 3 mps 623 mmHg 72%
    15:00 +5°C° 0 mm 2 mps 623 mmHg 75%
    16:00 +3°C° 0.1 mm 2 mps 623 mmHg 79%
    17:00 +2°C° 0.1 mm 2 mps 623 mmHg 82%
    18:00 +1°C° 0.1 mm 2 mps 622 mmHg 86%
    19:00 +1°C° 0.1 mm 2 mps 623 mmHg 87%
    20:00 +2°C° 0.1 mm 2 mps 623 mmHg 89%
    21:00 +2°C° 0.1 mm 2 mps 624 mmHg 90%
    22:00 +2°C° 0 mm 2 mps 624 mmHg 91%
    23:00 +1°C° 0 mm 2 mps 624 mmHg 92%

    Day after tomorrow, 5 December, Monday

    Time Temperature Precipitation Wind Pressure Humidity
    00:00 +1°C° 0 mm 2 mps 624 mmHg 93%
    01:00 +1°C° 0 mm 2 mps 624 mmHg 91%
    02:00 +1°C° 0 mm 2 mps 624 mmHg 90%
    03:00 +1°C° 0 mm 2 mps 623 mmHg 88%
    04:00 +1°C° 0 mm 2 mps 624 mmHg 86%
    05:00 +1°C° 0 mm 2 mps 624 mmHg 84%
    06:00 +1°C° 0 mm 2 mps 624 mmHg 82%
    07:00 +1°C° 0 mm 2 mps 625 mmHg 80%
    08:00 +2°C° 0 mm 2 mps 625 mmHg 77%
    09:00 +3°C° 0 mm 2 mps 626 mmHg 75%
    10:00 +4°C° 0 mm 2 mps 626 mmHg 72%
    11:00 +5°C° 0 mm 2 mps 627 mmHg 70%
    12:00 +6°C° 0 mm 2 mps 627 mmHg 68%
    13:00 +6°C° 0 mm 2 mps 627 mmHg 72%
    14:00 +5°C° 0 mm 2 mps 627 mmHg 76%
    15:00 +5°C° 0 mm 2 mps 626 mmHg 79%
    16:00 +4°C° 0 mm 1 mps 626 mmHg 84%
    17:00 +3°C° 0 mm 1 mps 626 mmHg 88%
    18:00 +1°C° 0 mm 1 mps 625 mmHg 92%
    19:00 +1°C° 0 mm 1 mps 626 mmHg 92%
    20:00 +1°C° 0 mm 1 mps 626 mmHg 92%
    21:00 +1°C° 0 mm 1 mps 626 mmHg 92%
    22:00 0°C° 0 mm 1 mps 626 mmHg 92%
    23:00 0°C° 0 mm 1 mps 626 mmHg 92%

    6 December, Tuesday

    Time Temperature Precipitation Wind Pressure Humidity
    00:00 0°C° 0 mm 1 mps 626 mmHg 92%
    01:00 0°C° 0 mm 1 mps 626 mmHg 91%
    02:00 0°C° 0 mm 1 mps 626 mmHg 91%
    03:00 -1°C° 0 mm 1 mps 626 mmHg 90%
    04:00 -1°C° 0 mm 1 mps 626 mmHg 89%
    05:00 -1°C° 0 mm 1 mps 626 mmHg 88%
    06:00 -1°C° 0 mm 1 mps 626 mmHg 88%
    07:00 +1°C° 0 mm 1 mps 627 mmHg 82%
    08:00 +3°C° 0 mm 1 mps 628 mmHg 76%
    09:00 +5°C° 0 mm 1 mps 629 mmHg 70%
    10:00 +6°C° 0 mm 1 mps 629 mmHg 65%
    11:00 +6°C° 0 mm 0 mps 630 mmHg 61%
    12:00 +7°C° 0 mm 0 mps 630 mmHg 56%
    13:00 +7°C° 0 mm 0 mps 630 mmHg 62%
    14:00 +6°C° 0 mm 0 mps 629 mmHg 67%
    15:00 +6°C° 0 mm 1 mps 629 mmHg 72%
    16:00 +4°C° 0 mm 1 mps 628 mmHg 77%
    17:00 +2°C° 0 mm 1 mps 628 mmHg 82%
    18:00 +1°C° 0 mm 1 mps 627 mmHg 87%
    19:00 0°C° 0 mm 1 mps 627 mmHg 83%
    20:00 0°C° 0 mm 1 mps 627 mmHg 80%
    21:00 -2°C° 0 mm 2 mps 628 mmHg 76%
    22:00 -2°C° 0 mm 2 mps 627 mmHg 75%
    23:00 -2°C° 0 mm 2 mps 627 mmHg 73%

    7 December, Wednesday

    Time Temperature Precipitation Wind Pressure Humidity
    00:00 -2°C° 0 mm 2 mps 627 mmHg 72%
    01:00 -2°C° 0 mm 2 mps 627 mmHg 73%
    02:00 -2°C° 0 mm 2 mps 627 mmHg 74%
    03:00 -2°C° 0 mm 2 mps 627 mmHg 75%
    04:00 -2°C° 0 mm 2 mps 627 mmHg 76%
    05:00 -2°C° 0 mm 2 mps 627 mmHg 77%
    06:00 -2°C° 0 mm 2 mps 627 mmHg 78%
    07:00 -1°C° 0 mm 2 mps 628 mmHg 73%
    08:00 +2°C° 0 mm 2 mps 629 mmHg 67%
    09:00 +3°C° 0 mm 2 mps 630 mmHg 62%
    10:00 +5°C° 0 mm 2 mps 630 mmHg 57%
    11:00 +6°C° 0 mm 2 mps 630 mmHg 53%
    12:00 +9°C° 0 mm 1 mps 631 mmHg 49%
    13:00 +8°C° 0 mm 1 mps 630 mmHg 54%
    14:00 +7°C° 0 mm 1 mps 630 mmHg 59%
    15:00 +6°C° 0 mm 1 mps 630 mmHg 65%
    16:00 +5°C° 0 mm 1 mps 629 mmHg 70%
    17:00 +3°C° 0 mm 1 mps 629 mmHg 75%
    18:00 +1°C° 0 mm 1 mps 628 mmHg 80%
    19:00 0°C° 0 mm 1 mps 628 mmHg 80%
    20:00 -2°C° 0 mm 2 mps 628 mmHg 79%
    21:00 -2°C° 0 mm 2 mps 629 mmHg 79%
    22:00 0°C° 0 mm 1 mps 629 mmHg 80%
    23:00 0°C° 0 mm 1 mps 628 mmHg 81%

    8 December, Thursday

    Time Temperature Precipitation Wind Pressure Humidity
    00:00 -1°C° 0 mm 1 mps 628 mmHg 82%
    01:00 -1°C° 0 mm 1 mps 628 mmHg 83%
    02:00 -1°C° 0 mm 1 mps 628 mmHg 84%
    03:00 -2°C° 0 mm 1 mps 628 mmHg 85%
    04:00 -2°C° 0 mm 1 mps 628 mmHg 85%
    05:00 -2°C° 0 mm 1 mps 628 mmHg 86%
    06:00 -2°C° 0 mm 1 mps 628 mmHg 86%
    07:00 0°C° 0 mm 1 mps 629 mmHg 81%
    08:00 +2°C° 0 mm 1 mps 630 mmHg 75%
    09:00 +3°C° 0 mm 1 mps 631 mmHg 70%
    10:00 +5°C° 0 mm 1 mps 631 mmHg 64%
    11:00 +5°C° 0 mm 2 mps 632 mmHg 58%
    12:00 +6°C° 0 mm 2 mps 632 mmHg 52%
    13:00 +6°C° 0 mm 2 mps 632 mmHg 55%
    14:00 +5°C° 0 mm 2 mps 631 mmHg 58%
    15:00 +6°C° 0 mm 1 mps 631 mmHg 62%
    16:00 +3°C° 0 mm 1 mps 630 mmHg 69%
    17:00 +1°C° 0 mm 1 mps 630 mmHg 76%
    18:00 -1°C° 0 mm 1 mps 629 mmHg 83%
    19:00 -1°C° 0 mm 1 mps 629 mmHg 82%
    20:00 -1°C° 0 mm 1 mps 629 mmHg 81%
    21:00 -1°C° 0 mm 1 mps 629 mmHg 80%
    22:00 -1°C° 0 mm 1 mps 629 mmHg 78%
    23:00 -1°C° 0 mm 1 mps 629 mmHg 76%
    Show more